Location: Oroua River
(40.4333°S, 175.4333°E)
Time: 13:55:37
(UTC+00:00)

In-Cosmos 22 - Pass Details

Date: 03 February 2023
Orbit: 784 x 876 km, 81.2° (Epoch: 22 March)

Event Time Altitude Azimuth Distance (km) Brightness Sun altitude
Exits shadow 14:42:42 58° 23° (NNE) 962 4.2 -25.5°
Maximum altitude 14:43:42 73° 83° (E) 872 4.2 -25.4°
Drops below altitude 10° 14:49:20 10° 167° (SSE) 2,492 7.5 -24.8°
Sets 14:51:48 0° 168° (SSE) 3,448 8.4 -24.5°
